Flag for U.S.A. Weather past 2 weeks in Livonia, Michigan, U.S.A.

Now
28 °F

Light freezing rain. Ice fog.


Feels Like: 17 °F
Forecast: 23 / 37 °F
Wind: 14 mph from Southeast

Location: Detroit Metropolitan Wayne County Airport

Current Time: Mar 3, 2015 at 2:02:27 PM

Latest Report: Mar 3, 2015 at 12:53 PM


Visibility: 2 mi

Pressure: 29.82 "Hg

Humidity: 89%

Dew point: 25 °F

Location of LivoniaLocation

Historic Weather in Livonia — Graph

°F

Livonia temperature yesterday

Maximum temperature yesterday: 32 °F (at 2:53 PM)
Minimum temperature yesterday: 21 °F (at 7:53 AM)
Average temperature yesterday: 26 °F

Past Weeks' High & Low Weather Summary

 TemperatureHumidityPressure
High32 °F (Mar 2, 2:53 PM)92% (Feb 21, 9:53 PM)30.83 "Hg (Feb 21, 9:53 PM)
Low-11 °F (Feb 20, 5:53 AM)38% (Feb 19, 11:53 AM)29.70 "Hg (Feb 24, 11:53 PM)
Average13 °F66%30.24 "Hg
* Reported Feb 16 12:53 PM — Mar 3 12:53 PM, Livonia, Weather by CustomWeather, © 2015

Note: Actual official high and low records may vary slightly from our data, if they occured in-between our weather recording intervals... More about our weather records

Advertising

Livonia weather history for previous 24 hours

 ConditionsComfort  
Time TempWeatherWind HumidityBarometerVisibility
12:53 PM
Tue, Mar 3
28 °FLight freezing rain. Ice fog.14 mph89%29.82 "Hg2 mi
11:53 AM27 °FLight freezing rain. Ice fog.10 mph85%29.92 "Hg3 mi
10:53 AM25 °FLight freezing rain. Ice fog.10 mph88%30.00 "Hg3 mi
10:01 AM23 °FSleet. Mostly cloudy.10 mph86%30.05 "Hg2 mi
8:53 AM22 °FLight snow. Ice fog.7 mph89%30.16 "Hg1 mi
8:02 AM23 °FLight snow. Overcast.3 mph80%30.17 "Hg2 mi
7:53 AM23 °FLight snow. Overcast.3 mph78%30.20 "Hg4 mi
6:59 AM23 °FLight snow. Overcast.6 mph74%30.16 "Hg2 mi
5:53 AM24 °FMostly cloudy.6 mph68%30.23 "Hg8 mi
4:53 AM24 °FMostly cloudy.5 mph68%30.25 "Hg8 mi
3:53 AM24 °FMostly cloudy.No wind68%30.31 "Hg8 mi
2:53 AM24 °FMostly cloudy.7 mph71%30.32 "Hg8 mi
1:53 AM23 °FMostly cloudy.6 mph74%30.36 "Hg8 mi
12:53 AM23 °FOvercast.8 mph72%30.37 "Hg9 mi
11:53 PM
Mon, Mar 2
24 °FOvercast.6 mph68%30.38 "Hg9 mi
10:53 PM24 °FMostly cloudy.5 mph68%30.40 "Hg10 mi
9:53 PM23 °FPartly cloudy.3 mph65%30.41 "Hg10 mi
8:53 PM25 °FPartly cloudy.6 mph60%30.42 "Hg10 mi
7:53 PM25 °FPassing clouds.6 mph55%30.44 "Hg10 mi
6:53 PM29 °FPassing clouds.No wind47%30.45 "Hg10 mi
5:53 PM30 °FPartly sunny.6 mph43%30.44 "Hg10 mi
4:53 PM32 °FPartly sunny.10 mph41%30.45 "Hg10 mi
3:53 PM32 °FPartly sunny.12 mph43%30.45 "Hg10 mi
2:53 PM32 °FScattered clouds.8 mph43%30.46 "Hg10 mi
Weather by CustomWeather, © 2015

See weather overviewHow to use our weather pages